Location: Newark
(49.8969°N, 3.3422°E)
Time: 18:59:48
(UTC+00:00)

Tiros 1 - Pass Details

Date: 12 May 2021
Orbit: 630 x 664 km, 48.4° (Epoch: 12 June)

Event Time Altitude Azimuth Distance (km) Brightness Sun altitude
Exits shadow 02:18:09 19° 241° (WSW) 1,546 8.5 -13.8°
Maximum altitude 02:21:27 62° 166° (SSE) 739 7.2 -13.5°
Drops below altitude 10° 02:26:08 10° 86° (E) 2,055 10.4 -13.0°
Sets 02:28:29 0° 83° (E) 2,961 11.3 -12.8°
